TimeEDT,TemperatureF,Dew PointF,Humidity,Sea Level PressureIn,VisibilityMPH,Wind Direction,Wind SpeedMPH,Gust SpeedMPH,PrecipitationIn,Events,Conditions,WindDirDegrees,DateUTC
12:14 AM,62.6,53.6,72,29.92,10.0,South,4.6,-,N/A,,Clear,180,2012-09-07 04:14:00
12:34 AM,64.0,53.6,69,29.92,10.0,South,4.6,-,N/A,,Clear,190,2012-09-07 04:34:00
12:54 AM,64.8,53.6,67,29.92,10.0,SSW,4.6,-,N/A,,Clear,200,2012-09-07 04:54:00
1:14 AM,64.6,53.8,68,29.92,10.0,SSW,6.9,-,N/A,,Clear,200,2012-09-07 05:14:00
1:34 AM,64.8,54.1,68,29.92,10.0,SSW,5.8,-,N/A,,Clear,200,2012-09-07 05:34:00
1:54 AM,64.6,54.1,69,29.92,10.0,SSW,6.9,-,N/A,,Clear,200,2012-09-07 05:54:00
2:14 AM,64.8,54.7,70,29.91,10.0,SSW,8.1,-,N/A,,Scattered Clouds,200,2012-09-07 06:14:00
2:35 AM,65.1,54.5,68,29.91,10.0,South,8.1,-,N/A,,Clear,190,2012-09-07 06:35:00
2:54 AM,65.3,54.0,67,29.90,10.0,SSW,6.9,-,N/A,,Scattered Clouds,200,2012-09-07 06:54:00
3:14 AM,65.5,53.8,66,29.90,10.0,SSW,5.8,-,N/A,,Mostly Cloudy,200,2012-09-07 07:14:00
3:35 AM,66.2,53.6,64,29.90,10.0,SW,5.8,-,N/A,Rain,Light Rain,220,2012-09-07 07:35:00
3:54 AM,64.8,54.9,70,29.91,10.0,SW,5.8,-,N/A,Rain,Rain,230,2012-09-07 07:54:00
4:14 AM,63.9,56.5,77,29.90,10.0,SW,5.8,-,N/A,Rain,Light Rain,230,2012-09-07 08:14:00
4:34 AM,65.3,58.6,79,29.90,10.0,West,11.5,-,N/A,,Overcast,260,2012-09-07 08:34:00
4:54 AM,66.4,58.5,76,29.89,10.0,West,8.1,-,N/A,Rain,Light Rain,280,2012-09-07 08:54:00
5:14 AM,67.3,59.7,77,29.90,10.0,WNW,11.5,-,N/A,,Mostly Cloudy,290,2012-09-07 09:14:00
5:34 AM,68.0,62.1,81,29.90,10.0,NW,13.8,18.4,N/A,,Overcast,310,2012-09-07 09:34:00
5:54 AM,66.0,59.2,79,29.91,10.0,NNW,12.7,18.4,N/A,,Overcast,330,2012-09-07 09:54:00
6:15 AM,65.5,57.7,76,29.91,10.0,NNW,9.2,-,N/A,,Overcast,340,2012-09-07 10:15:00
6:34 AM,64.9,57.2,76,29.90,10.0,NNW,11.5,-,N/A,,Overcast,340,2012-09-07 10:34:00
6:54 AM,64.6,58.1,79,29.91,10.0,North,8.1,-,N/A,,Overcast,350,2012-09-07 10:54:00
7:14 AM,64.4,57.6,78,29.91,10.0,North,9.2,-,N/A,,Overcast,350,2012-09-07 11:14:00
7:34 AM,63.9,57.4,79,29.92,10.0,North,6.9,-,N/A,Rain,Light Rain,360,2012-09-07 11:34:00
7:54 AM,63.5,57.4,80,29.91,10.0,ENE,4.6,-,N/A,Rain,Light Rain,70,2012-09-07 11:54:00
8:14 AM,63.0,58.5,85,29.91,10.0,NE,3.5,-,N/A,Rain,Light Rain,40,2012-09-07 12:14:00
8:34 AM,63.5,58.3,83,29.92,10.0,Calm,Calm,-,N/A,,Mostly Cloudy,0,2012-09-07 12:34:00
8:54 AM,63.9,58.1,81,29.92,10.0,Calm,Calm,-,N/A,,Mostly Cloudy,0,2012-09-07 12:54:00
9:14 AM,63.9,58.1,81,29.92,10.0,Calm,Calm,-,N/A,,Mostly Cloudy,0,2012-09-07 13:14:00
9:34 AM,64.4,58.5,81,29.93,10.0,Calm,Calm,-,N/A,,Scattered Clouds,0,2012-09-07 13:34:00
9:54 AM,64.6,59.5,84,29.94,10.0,SW,3.5,-,N/A,,Scattered Clouds,230,2012-09-07 13:54:00
10:14 AM,65.3,58.6,79,29.94,10.0,Calm,Calm,-,N/A,,Scattered Clouds,0,2012-09-07 14:14:00
10:34 AM,64.8,59.0,82,29.93,10.0,Calm,Calm,-,N/A,,Scattered Clouds,0,2012-09-07 14:34:00
10:54 AM,64.4,59.4,84,29.93,10.0,South,3.5,-,N/A,Rain,Light Rain,190,2012-09-07 14:54:00
11:14 AM,63.9,59.9,87,29.93,10.0,SSW,3.5,-,N/A,Rain,Light Rain,210,2012-09-07 15:14:00
11:34 AM,63.7,60.6,90,29.92,10.0,Calm,Calm,-,N/A,Rain,Rain,0,2012-09-07 15:34:00
11:54 AM,63.9,60.4,89,29.92,10.0,Calm,Calm,-,N/A,Rain,Light Rain,0,2012-09-07 15:54:00
12:14 PM,63.9,60.6,89,29.92,10.0,SW,3.5,-,N/A,Rain,Rain,230,2012-09-07 16:14:00
12:34 PM,63.7,61.0,91,29.92,7.0,SW,3.5,-,N/A,Rain,Rain,220,2012-09-07 16:34:00
12:54 PM,63.5,61.5,93,29.92,10.0,West,4.6,-,N/A,Rain,Rain,260,2012-09-07 16:54:00
1:15 PM,63.5,60.4,90,29.91,10.0,West,4.6,-,N/A,Rain,Light Rain,260,2012-09-07 17:15:00
1:34 PM,63.5,60.3,89,29.90,10.0,WNW,5.8,-,N/A,Rain,Light Rain,290,2012-09-07 17:34:00
1:54 PM,63.9,61.5,92,29.89,10.0,West,6.9,-,N/A,Rain,Light Rain,280,2012-09-07 17:54:00
2:15 PM,63.5,59.9,88,29.89,10.0,WSW,5.8,-,N/A,Rain,Light Rain,250,2012-09-07 18:15:00
2:34 PM,62.6,58.6,87,29.88,10.0,SW,3.5,-,N/A,Rain,Light Rain,230,2012-09-07 18:34:00
2:54 PM,62.6,59.4,89,29.86,10.0,SE,3.5,-,N/A,,Overcast,140,2012-09-07 18:54:00
3:14 PM,62.6,59.7,90,29.87,10.0,WSW,3.5,-,N/A,Rain,Rain,250,2012-09-07 19:14:00
3:39 PM,62.6,60.1,91,29.86,10.0,SSW,3.5,-,N/A,Rain,Light Rain,210,2012-09-07 19:39:00
3:59 PM,62.1,59.9,93,29.86,10.0,Calm,Calm,-,N/A,Rain,Light Rain,0,2012-09-07 19:59:00
4:14 PM,61.9,59.9,93,29.86,10.0,Calm,Calm,-,N/A,Rain,Light Rain,0,2012-09-07 20:14:00
4:34 PM,61.9,60.1,94,29.84,7.0,Calm,Calm,-,N/A,Rain,Rain,0,2012-09-07 20:34:00
4:54 PM,61.7,59.9,94,29.85,7.0,SW,4.6,-,N/A,Rain,Rain,230,2012-09-07 20:54:00
5:14 PM,61.0,59.2,94,29.84,10.0,Calm,Calm,-,N/A,Rain,Light Rain,0,2012-09-07 21:14:00
5:54 PM,60.1,58.5,94,29.83,7.0,South,3.5,-,N/A,Rain,Rain,170,2012-09-07 21:54:00
6:14 PM,59.9,58.6,96,29.83,4.0,SSW,4.6,-,N/A,Rain,Light Rain,200,2012-09-07 22:14:00
6:34 PM,59.5,58.5,96,29.83,7.0,South,4.6,-,N/A,Rain,Rain,180,2012-09-07 22:34:00
6:54 PM,59.5,58.5,96,29.84,4.0,SSW,5.8,-,N/A,Rain,Heavy Rain,200,2012-09-07 22:54:00
7:14 PM,59.4,58.1,96,29.84,7.0,SSW,4.6,-,N/A,Rain,Rain,200,2012-09-07 23:14:00
7:34 PM,59.0,57.7,96,29.84,5.0,SSW,4.6,-,N/A,Rain,Rain,210,2012-09-07 23:34:00
7:55 PM,59.0,58.1,97,29.84,10.0,South,4.6,-,N/A,,Overcast,190,2012-09-07 23:55:00
8:14 PM,59.2,58.1,96,29.83,10.0,SSW,6.9,-,N/A,,Overcast,210,2012-09-08 00:14:00
8:34 PM,59.7,58.1,94,29.83,3.0,West,5.8,-,N/A,Rain,Heavy Rain,270,2012-09-08 00:34:00
8:54 PM,59.0,57.4,94,29.83,10.0,NNW,3.5,-,N/A,Rain,Light Rain,340,2012-09-08 00:54:00
9:14 PM,59.0,56.7,92,29.83,10.0,NNE,9.2,-,N/A,Rain,Rain,20,2012-09-08 01:14:00
9:34 PM,58.3,56.3,93,29.83,10.0,Calm,Calm,-,N/A,Rain,Light Rain,0,2012-09-08 01:34:00
9:54 PM,58.6,56.5,93,29.82,10.0,Calm,Calm,-,N/A,,Mostly Cloudy,0,2012-09-08 01:54:00
10:14 PM,59.0,56.3,91,29.82,10.0,East,4.6,-,N/A,,Overcast,80,2012-09-08 02:14:00
10:34 PM,59.0,55.8,89,29.81,10.0,East,4.6,-,N/A,,Overcast,80,2012-09-08 02:34:00
10:54 PM,59.7,56.3,88,29.81,10.0,East,4.6,-,N/A,,Overcast,80,2012-09-08 02:54:00
11:14 PM,59.2,55.8,88,29.81,7.0,Calm,Calm,-,N/A,Rain,Rain,0,2012-09-08 03:14:00
11:34 PM,59.2,56.3,90,29.82,10.0,Calm,Calm,-,N/A,Rain,Light Rain,0,2012-09-08 03:34:00
11:55 PM,60.6,54.3,80,29.81,10.0,North,10.4,-,N/A,,Overcast,10,2012-09-08 03:55:00